Theta_e
278 278 279 279 279 279 279 280 280 280 281 281 280 281 281 281 281 281 281 282 282 282 282 282 283 283 283 283 283 282 282 283 283 283 283 283 283 283 283 284 284 284 284 285 285 285 285 286 286 286 286 286 287 287 287 288 288 288 288 288 288 288 288 288 288 288 288 289 289
278 278 278 279 279 279 279 279 280 280 280 280 280 280 280 280 280 280 281 281 281 281 282 282 282 282 282 282 282 282 282 282 282 282 283 283 283 283 283 284 284 284 285 285 285 285 285 286 286 286 286 286 286 287 287 288 288 288 288 288 288 288 288 288 288 288 288 289 289
277 277 277 278 278 278 278 278 278 279 279 279 280 280 280 280 280 280 280 281 281 281 281 281 282 282 282 282 282 282 282 282 282 282 282 282 283 283 283 283 284 284 284 284 284 285 285 285 285 285 285 285 285 286 286 287 288 288 288 288 289 289 289 289 289 289 290 290 290
277 277 277 277 277 277 277 278 278 278 278 279 279 280 280 280 280 280 280 281 281 281 281 281 281 282 282 282 282 282 282 282 282 282 282 282 282 282 283 283 283 283 284 284 284 284 285 285 285 285 285 285 285 285 285 286 287 287 287 288 288 289 289 289 290 290 290 290 291
276 277 277 277 277 277 277 278 278 278 278 279 279 279 279 280 280 280 280 280 280 280 281 281 281 281 281 281 281 281 282 282 282 282 282 282 282 283 283 283 283 283 284 284 284 284 284 285 285 285 285 285 285 285 286 286 286 287 287 288 288 289 289 289 289 290 290 290 291
276 276 277 277 277 277 277 278 277 278 278 279 278 279 279 279 280 280 280 280 280 280 281 281 281 281 281 281 281 281 282 282 282 282 282 282 282 283 283 283 283 283 283 284 284 284 284 284 284 284 284 284 285 285 286 286 286 286 287 287 288 289 289 290 290 290 290 290 290
276 276 276 276 276 277 277 277 277 278 278 278 278 278 278 279 279 279 279 279 280 280 280 281 281 281 281 281 281 281 281 281 282 282 282 282 282 282 282 283 283 283 283 283 284 284 284 284 284 284 284 284 284 285 285 286 286 286 286 286 287 288 289 290 290 291 290 290 290
276 276 276 276 276 276 276 277 277 277 277 278 278 278 278 278 278 278 279 279 279 280 280 281 281 281 281 281 281 281 281 282 282 282 282 282 282 282 283 283 283 283 283 283 283 283 283 284 284 283 283 284 284 284 284 285 285 285 285 285 286 287 288 288 290 290 291 291 290
276 276 276 276 276 276 277 277 277 277 277 277 277 277 277 278 278 279 279 279 279 280 280 281 281 281 281 281 281 281 282 282 282 282 282 283 282 283 283 283 283 283 283 283 283 283 283 283 283 283 284 284 284 284 284 285 285 285 285 285 286 286 287 287 288 289 290 290 290
275 275 276 276 276 276 277 277 277 277 277 277 277 277 278 278 279 279 279 279 280 280 281 281 281 281 281 281 282 282 282 282 282 282 283 283 283 283 283 283 283 283 283 283 284 284 284 284 283 284 284 284 284 284 284 285 285 285 285 285 285 285 286 286 287 288 288 288 289
275 275 275 276 276 277 277 277 277 277 277 278 278 278 278 278 279 279 280 280 280 280 281 281 281 281 281 282 282 282 283 283 283 283 283 283 283 283 283 283 283 284 284 284 284 284 284 284 284 284 284 284 284 284 284 284 285 284 285 285 285 285 285 286 286 287 287 287 288
274 275 275 276 276 277 277 277 277 277 277 277 278 278 278 279 279 280 280 280 280 280 280 281 281 281 281 281 282 282 282 282 282 283 282 282 283 283 283 283 283 284 284 284 284 284 284 284 284 284 284 284 284 284 284 285 284 284 284 285 285 285 285 285 286 286 287 287 287
274 275 275 276 276 276 276 277 277 277 277 277 278 278 278 279 279 280 280 280 280 280 280 281 281 281 281 281 281 282 282 282 282 282 282 282 282 282 283 283 283 283 283 284 284 284 284 284 284 284 284 284 284 285 285 285 284 284 284 284 285 285 285 285 286 286 287 287 287
275 275 275 276 276 276 276 276 277 277 277 277 277 278 278 279 279 279 279 279 279 279 280 280 280 281 281 281 281 281 281 282 282 282 282 282 282 282 282 282 282 283 283 283 284 284 284 284 284 284 284 284 284 285 285 285 285 285 285 284 284 285 285 285 286 286 287 287 287
275 275 275 276 276 276 276 276 276 277 277 277 277 277 278 278 278 279 279 279 279 279 279 280 280 280 281 281 281 281 281 281 281 281 281 281 281 282 282 282 282 282 283 283 283 283 284 284 284 284 284 284 284 285 285 285 285 285 285 285 285 285 285 285 286 286 286 287 287
274 275 275 275 276 276 276 276 276 277 277 277 277 277 277 278 278 278 279 279 279 279 279 279 279 280 280 281 281 281 281 281 281 281 281 281 281 281 281 282 282 282 282 283 283 283 283 284 284 284 284 284 284 284 285 285 285 285 286 286 286 286 286 286 286 286 286 287 286
274 275 275 275 275 275 276 276 276 276 276 277 277 277 277 278 278 278 279 279 279 279 279 279 279 280 280 280 280 281 280 280 280 280 280 281 281 281 281 281 282 282 282 282 283 283 283 283 284 284 284 284 284 284 285 285 285 285 286 286 286 286 287 287 287 287 287 287 287
274 275 275 275 275 275 275 276 276 276 276 276 277 277 277 278 278 278 278 279 279 279 279 279 279 279 279 279 280 280 280 280 280 280 280 281 281 281 281 281 282 282 282 282 282 283 283 283 284 284 284 284 284 284 285 285 285 285 285 286 286 286 287 287 287 288 287 287 287
274 274 275 275 275 275 275 275 276 276 276 276 277 277 277 278 278 278 278 278 279 279 279 279 279 279 279 279 280 280 280 280 280 280 280 281 281 281 281 282 282 282 282 283 283 283 283 284 284 284 284 284 284 284 285 285 285 285 285 285 286 286 286 287 287 287 288 288 288
274 274 274 275 275 275 275 276 276 276 276 277 277 277 277 278 278 278 278 278 278 278 278 278 278 278 279 279 279 279 280 280 280 280 281 281 281 281 282 282 282 282 283 283 283 283 284 284 284 284 284 284 284 284 285 285 285 285 285 285 286 286 286 286 287 287 287 288 288
274 274 275 275 275 275 275 276 276 276 276 277 277 277 277 278 277 277 277 277 278 278 278 278 278 278 278 279 279 279 280 280 280 280 281 281 281 281 282 282 282 282 283 283 283 284 284 284 284 284 284 284 284 285 285 285 285 285 285 285 286 286 286 286 287 287 287 287 288
274 274 275 275 275 275 276 276 276 276 277 277 277 277 277 277 277 277 277 277 278 278 278 278 278 278 278 279 279 279 280 280 280 281 281 281 281 282 282 282 282 283 283 283 283 284 284 284 285 285 285 285 285 285 285 285 285 285 285 285 286 286 286 287 287 287 287 287 287
274 275 275 275 275 275 276 276 276 276 277 277 277 277 277 277 277 277 277 277 277 278 278 278 278 278 279 279 279 279 280 280 280 280 281 281 281 282 282 282 283 283 283 283 284 284 285 285 285 285 286 285 285 285 286 286 286 285 285 285 286 286 286 286 287 287 287 287 287
274 275 275 275 275 275 276 276 276 276 276 276 276 276 276 276 277 277 277 277 277 277 278 278 278 279 279 279 279 280 280 280 280 280 281 281 281 282 282 283 283 283 283 284 285 285 285 285 285 286 286 286 286 286 286 286 286 286 286 286 286 286 286 286 287 287 287 287 288
274 274 275 275 275 275 276 276 276 276 276 276 276 276 276 276 277 277 277 277 277 277 278 278 278 279 279 279 279 280 280 280 280 280 280 281 282 282 282 283 283 283 284 284 285 286 286 285 286 286 286 286 287 287 286 287 287 286 286 286 286 286 286 286 287 287 288 288 288
274 274 274 275 275 275 276 276 276 276 276 276 276 276 276 276 276 276 277 277 277 277 278 278 278 279 279 279 279 279 279 280 280 280 280 281 281 282 282 282 283 283 284 285 285 285 286 286 286 286 286 287 287 288 288 289 288 288 288 287 287 287 286 286 287 287 288 288 288
274 274 275 275 275 275 275 276 275 275 275 275 275 276 276 276 276 276 276 276 277 277 278 278 278 278 278 279 279 279 279 279 280 280 280 281 281 281 281 282 282 283 284 285 285 285 286 286 286 286 286 286 286 286 285 285 286 287 288 288 288 288 287 287 287 287 287 288 288
274 274 274 275 275 275 275 275 275 275 275 275 275 275 276 276 276 276 276 276 277 277 277 277 278 278 278 278 278 279 279 279 280 280 280 281 281 281 281 281 282 283 284 284 284 285 285 285 285 285 285 284 284 284 284 284 284 284 285 286 287 288 288 288 288 288 288 288 288
274 274 274 275 275 275 275 275 275 275 275 275 275 275 276 276 276 276 276 276 276 277 277 277 277 277 278 278 278 278 279 279 280 280 280 280 280 280 281 281 281 282 283 284 284 284 284 284 284 284 284 284 284 283 283 284 284 284 284 284 285 286 287 288 289 289 289 288 288
274 274 274 275 275 274 274 274 274 275 275 275 275 275 275 275 275 276 276 276 276 276 276 277 277 277 277 277 278 278 279 279 279 280 280 279 279 280 280 280 281 281 282 283 283 283 284 284 284 284 284 284 284 283 283 283 283 283 283 284 284 285 285 286 287 288 289 289 289
274 274 274 274 274 274 274 274 274 275 275 275 275 275 275 275 275 275 275 275 276 276 276 277 276 277 277 278 278 278 278 279 279 279 279 279 279 279 279 279 280 280 281 282 283 283 283 283 284 284 284 284 283 283 283 283 283 283 283 283 284 284 284 285 286 287 288 289 289
274 274 274 274 274 274 274 274 274 274 274 274 274 275 275 275 275 275 275 275 276 276 276 276 276 276 277 277 278 278 278 278 278 278 278 278 278 278 278 279 279 280 280 282 282 282 283 283 283 284 284 284 283 283 283 282 282 283 283 283 283 283 284 284 285 286 287 288 289
274 274 274 274 274 274 274 274 274 274 274 274 274 274 274 274 275 275 275 275 275 275 275 276 276 276 277 277 277 277 277 277 278 278 278 278 278 278 278 278 278 279 280 282 282 282 283 283 283 283 283 283 282 282 282 282 282 282 282 282 283 283 284 284 284 285 286 287 288
274 274 273 273 273 273 274 274 274 274 274 274 274 274 274 274 274 274 275 275 275 275 275 276 276 276 277 277 277 277 277 277 277 277 277 277 277 277 277 277 278 279 281 282 282 282 282 283 283 283 283 283 282 281 281 281 281 281 281 282 282 283 283 284 284 285 285 286 288
273 273 273 273 273 273 273 273 273 273 273 273 273 274 274 274 274 274 274 275 275 275 275 276 276 277 277 277 277 277 276 276 277 277 277 277 276 276 276 277 277 279 281 281 282 282 282 282 282 283 283 282 281 281 281 280 280 280 281 281 281 282 282 283 284 284 285 286 287
273 273 273 273 273 273 273 273 273 273 273 273 273 273 273 273 274 274 274 275 275 275 275 276 276 276 276 276 276 276 276 276 276 276 276 276 276 276 276 276 277 278 280 281 281 282 282 282 282 282 282 282 281 281 281 281 281 280 280 280 281 281 282 283 283 284 285 286 286
273 273 273 272 272 272 272 272 272 272 272 272 272 273 273 273 273 274 274 275 274 274 275 275 276 276 276 276 275 276 276 275 276 276 276 276 276 276 276 276 277 278 279 281 281 281 282 282 282 282 282 282 282 282 282 282 281 281 281 280 280 281 281 282 283 283 284 285 286
273 273 273 272 272 272 272 272 272 272 272 272 272 272 273 273 273 274 274 274 274 274 274 275 275 275 275 275 275 275 275 276 275 276 275 276 276 276 276 276 277 278 279 280 281 281 282 282 282 283 283 282 283 283 284 283 283 282 281 280 280 281 281 282 283 283 284 285 286
273 273 272 272 272 272 272 272 272 272 272 272 272 272 273 273 273 273 274 274 274 274 274 275 275 275 275 275 275 275 275 275 275 275 275 275 276 276 277 277 277 277 278 280 280 281 281 282 282 283 283 283 283 284 284 284 283 282 281 280 280 280 281 282 282 283 284 284 286
273 273 272 272 272 272 272 271 271 271 272 272 272 272 272 273 273 274 274 274 274 274 274 275 275 275 275 275 275 274 275 275 275 275 275 275 276 277 278 277 277 277 278 279 280 281 281 282 282 283 283 283 283 284 283 283 282 282 281 280 280 280 281 281 282 283 283 284 285
272 272 272 272 272 272 271 271 271 271 272 272 272 272 273 273 273 273 273 273 274 274 274 275 275 275 275 275 274 274 274 274 275 275 275 275 276 277 277 277 276 277 277 278 280 281 281 282 282 283 283 282 283 284 283 282 281 280 280 280 280 280 281 281 282 282 283 284 285
Wind_Speed
6 6 6 6 6 6 6 6 7 7 7 7 7 7 7 8 8 8 8 8 8 8 8 8 8 8 9 10 11 11 11 11 12 13 13 14 14 14 14 13 12 12 12 12 12 11 11 11 11 10 9 8 9 10 9 9 10 11 12 12 12 12 13 14 13 13 13 14 12
7 7 6 7 7 7 6 7 7 7 7 7 8 8 8 8 8 8 8 8 8 8 8 8 9 10 11 12 12 12 13 13 14 15 15 15 15 15 14 14 14 13 13 13 12 11 11 11 11 10 9 8 9 9 9 8 9 10 12 13 12 11 11 13 13 14 14 14 13
7 7 7 6 7 7 7 7 7 8 8 8 8 8 8 8 8 8 8 8 9 9 9 8 9 10 12 13 12 12 13 14 15 15 15 15 15 15 15 14 15 15 14 13 12 12 11 12 11 10 10 9 10 10 10 10 10 10 11 13 11 10 10 10 11 12 12 11 13
7 7 7 7 8 8 8 7 8 9 9 8 8 8 8 8 8 8 8 9 9 9 9 9 9 9 10 11 12 13 13 14 15 16 16 16 16 16 16 15 16 16 15 14 14 13 13 13 11 10 10 11 12 12 11 9 10 10 10 10 9 9 10 9 9 9 9 10 11
8 8 7 7 8 8 8 8 9 10 9 8 8 8 8 8 7 8 8 8 9 9 10 11 11 10 11 12 13 14 15 15 15 15 15 16 16 16 16 16 16 16 15 14 14 14 14 14 12 10 10 11 11 10 10 11 11 11 10 9 9 9 9 9 9 9 9 9 9
9 9 8 8 9 9 9 9 10 10 10 8 9 9 9 8 8 9 10 10 11 12 13 13 12 12 12 13 14 14 15 15 14 14 14 15 15 15 16 17 16 16 15 15 15 15 15 14 12 11 10 10 10 11 11 12 11 11 11 10 9 9 9 10 9 9 9 11 11
10 10 10 9 9 9 9 10 10 10 10 9 10 11 12 11 11 12 13 12 12 12 12 11 11 12 12 13 13 14 14 14 14 15 16 15 16 16 16 17 17 16 16 16 16 15 15 14 12 11 11 10 10 11 12 12 11 11 11 11 10 9 9 10 9 8 10 12 14
10 10 10 10 10 10 10 11 11 11 10 10 11 12 13 13 14 15 14 13 12 12 11 10 11 12 13 13 13 14 15 15 15 16 16 16 17 17 17 17 17 18 18 17 16 16 15 14 12 12 11 10 10 11 12 12 13 13 13 13 11 10 10 10 9 9 10 13 14
10 10 10 10 10 10 11 11 11 11 12 12 12 12 13 14 15 15 14 13 12 11 11 11 12 13 14 14 15 15 14 14 15 15 16 16 16 17 17 16 17 17 17 16 16 17 17 14 13 12 12 11 11 11 12 13 14 15 15 13 12 12 11 11 11 12 13 14 15
11 11 11 11 11 11 11 12 12 12 13 13 13 13 13 14 14 14 13 11 12 12 12 12 13 13 14 15 15 14 14 14 14 15 15 16 16 16 16 15 16 16 16 15 15 16 16 14 14 13 13 13 14 14 15 15 16 17 16 13 13 14 15 14 14 14 15 15 16
12 12 12 12 12 12 12 12 12 12 12 13 13 13 13 13 13 13 12 12 12 13 14 13 13 14 14 14 14 14 14 13 14 14 15 16 16 16 16 16 16 17 16 15 14 14 14 13 14 15 16 15 16 16 17 17 18 19 18 15 15 16 17 17 16 15 15 16 17
12 13 13 13 13 13 13 12 12 11 12 13 13 13 12 12 12 13 13 13 14 14 14 14 14 14 14 13 14 14 14 15 15 16 16 16 17 17 17 17 18 18 18 17 15 14 13 13 15 16 18 18 16 15 15 18 18 19 19 19 18 18 18 18 17 16 15 15 17
13 13 13 13 14 13 13 12 11 11 11 12 12 12 12 12 13 13 13 14 15 14 13 13 14 14 14 14 14 14 14 15 16 16 16 17 17 18 18 18 18 18 18 18 16 15 14 15 16 18 19 19 16 15 16 18 18 19 19 20 20 20 19 19 18 17 17 17 18
14 14 14 14 14 13 12 12 11 10 11 12 12 12 12 12 12 12 13 14 14 14 13 13 13 13 13 14 15 15 16 16 17 17 18 18 18 18 18 18 19 19 18 17 16 17 17 17 18 19 19 20 19 18 18 18 18 19 19 20 20 21 20 20 19 19 19 19 19
14 14 14 14 14 13 12 12 11 10 11 13 12 12 12 12 12 12 12 13 14 14 13 13 12 13 14 16 16 17 17 17 18 18 19 19 19 19 19 19 19 19 18 17 17 18 19 19 20 20 20 20 20 20 20 20 19 19 19 20 20 20 20 20 20 19 19 20 20
14 14 14 14 14 13 12 12 10 11 11 12 13 13 13 13 12 12 13 14 13 13 13 14 14 14 14 16 17 18 18 18 18 19 19 19 19 19 19 19 19 19 19 19 19 19 19 19 19 20 20 21 21 21 21 21 21 21 21 21 21 21 20 20 20 20 20 20 20
14 14 14 14 14 14 14 13 12 12 12 14 14 14 14 13 13 13 13 14 13 13 14 16 15 15 15 16 16 16 16 17 17 18 18 18 19 19 20 20 20 20 20 20 20 20 20 20 20 20 21 21 21 21 21 21 21 21 21 22 21 21 21 20 20 20 20 21 21
14 14 14 14 15 15 15 15 14 14 14 15 15 15 14 14 14 14 14 14 14 15 17 18 16 16 16 17 17 16 15 16 17 17 18 18 19 19 20 20 20 20 20 20 20 21 21 21 21 21 21 21 21 21 21 21 21 21 22 22 22 22 21 21 21 20 20 20 21
15 15 15 15 15 15 16 16 16 16 16 16 15 15 15 16 16 16 16 15 16 17 18 18 18 17 17 18 18 17 16 16 18 19 19 19 19 19 20 20 20 20 20 20 21 21 21 21 21 21 21 21 21 21 21 21 21 21 22 22 22 22 22 22 22 21 20 20 20
15 15 15 15 15 16 16 16 16 16 16 16 16 16 16 17 17 17 17 17 17 18 18 19 18 18 18 19 19 18 17 16 18 19 19 19 19 19 20 20 20 21 21 21 21 21 21 21 22 22 22 22 22 22 22 22 22 22 22 21 21 22 22 22 22 22 22 22 21
15 15 15 15 16 16 16 16 16 16 17 16 16 16 16 17 17 18 18 19 19 19 19 19 19 19 19 19 19 19 18 16 17 18 19 19 19 20 20 20 20 20 20 20 20 21 21 22 22 22 22 22 22 22 22 21 21 22 22 21 21 21 22 22 22 23 23 22 22
15 15 15 16 16 16 16 16 16 16 16 16 16 16 16 17 17 18 19 19 19 19 19 19 19 19 20 19 20 19 19 17 17 18 18 18 19 19 19 19 19 20 20 20 20 20 21 21 22 22 22 21 22 22 22 22 21 22 22 22 22 22 23 23 23 23 23 23 23
16 16 15 15 15 16 16 16 16 16 16 16 17 17 16 17 17 18 18 19 18 18 18 18 18 19 19 19 20 20 20 19 19 19 19 19 19 19 19 19 19 19 19 18 18 18 19 19 20 20 21 20 21 22 22 22 22 22 22 23 23 24 23 23 23 22 22 22 22
16 16 15 14 15 16 16 16 16 16 16 17 17 17 17 17 17 18 18 18 18 19 18 17 17 18 19 19 20 20 20 20 20 20 20 20 19 19 19 18 17 17 17 15 16 16 17 16 15 16 17 18 19 19 21 22 22 22 22 23 23 23 23 23 23 23 23 23 22
16 16 16 16 16 16 16 15 16 16 16 17 17 17 17 17 17 17 17 18 19 19 19 19 19 18 18 18 19 19 19 19 20 20 20 20 19 18 18 16 15 14 14 14 18 22 23 21 18 16 15 15 16 18 19 21 22 23 22 22 23 22 22 23 23 23 23 23 22
16 16 16 16 16 16 16 16 16 16 17 17 17 17 17 17 17 17 18 19 19 19 19 19 18 18 17 16 17 18 18 17 18 18 19 19 19 18 17 15 14 13 13 15 20 24 26 26 25 21 18 15 16 16 16 15 16 17 19 20 20 21 21 21 22 23 23 22 22
16 16 16 16 16 16 16 16 16 16 17 17 17 17 17 17 16 17 18 19 19 19 19 18 17 17 16 15 16 17 17 16 17 17 18 18 18 18 17 16 14 12 13 17 22 24 26 26 27 25 22 18 16 15 14 14 15 16 17 17 17 18 19 20 21 22 22 21 22
16 16 16 16 16 16 16 16 16 16 17 17 17 17 17 17 18 18 18 19 19 18 17 15 15 14 13 13 15 16 17 17 17 17 17 17 18 18 17 15 14 14 16 21 24 26 27 27 28 28 26 22 19 17 17 17 17 17 16 16 16 17 17 18 18 19 20 21 21
16 16 16 16 16 16 16 16 16 16 16 16 17 17 18 18 18 18 18 19 19 18 16 14 13 12 12 13 15 16 17 18 16 15 15 16 17 17 17 17 16 17 20 24 26 27 28 28 28 29 29 27 20 16 14 15 15 16 16 15 16 16 16 16 15 15 16 18 19
16 16 16 16 16 16 16 16 16 16 16 16 16 17 18 18 18 18 18 18 18 17 16 15 14 14 15 16 16 16 16 15 15 15 16 17 18 17 17 17 17 17 20 24 26 28 28 29 29 29 29 29 24 19 16 15 15 16 16 16 17 18 19 18 18 17 16 15 17
16 16 16 16 16 16 16 16 16 17 16 16 17 17 18 18 18 18 18 18 18 18 17 17 18 18 18 18 17 16 16 16 15 15 16 17 18 18 18 19 19 19 21 25 27 28 29 29 29 29 30 30 25 20 17 16 17 17 16 17 18 20 21 20 20 19 19 18 17
16 16 16 16 16 16 16 16 17 17 17 17 17 18 18 18 18 18 18 18 18 18 19 19 19 19 19 18 17 17 17 17 16 16 16 17 18 18 19 19 18 19 21 24 27 28 28 29 29 29 30 30 26 22 20 19 19 19 19 21 22 23 23 20 20 20 21 21 19
16 16 15 16 16 16 16 16 16 17 17 17 17 17 18 18 18 18 17 17 17 18 18 19 19 19 18 18 18 17 17 17 17 17 18 18 18 19 19 18 16 18 20 25 27 28 28 29 29 30 31 31 27 23 21 21 20 19 20 21 23 24 25 25 23 22 22 22 20
16 16 16 16 16 16 16 16 16 17 17 17 17 17 18 18 18 18 17 17 16 17 17 17 18 17 17 16 17 17 17 16 16 17 18 18 18 19 18 16 14 16 21 25 27 28 29 29 30 31 32 32 27 23 21 23 22 22 22 23 24 24 24 25 25 24 24 23 21
16 16 16 16 16 16 16 16 16 16 17 17 17 17 18 18 18 18 17 17 17 17 17 17 16 16 16 15 16 16 17 17 17 17 18 18 18 18 18 17 16 19 23 26 28 28 29 30 31 32 33 31 25 22 22 24 25 25 26 27 27 26 26 25 24 24 23 23 22
15 16 16 16 16 16 16 16 16 16 17 17 17 18 18 17 17 17 17 18 18 17 17 17 16 16 15 16 16 16 16 17 18 18 18 18 18 18 18 18 18 20 23 26 27 28 29 30 32 34 33 30 23 21 21 23 23 25 27 29 28 28 27 26 24 23 22 21 22
15 15 16 16 16 16 16 16 16 16 17 17 17 17 17 17 17 16 17 17 17 17 17 17 16 16 16 16 16 16 16 17 17 18 18 18 18 18 18 18 17 19 21 24 27 29 30 31 33 34 33 27 22 20 20 20 20 22 25 27 27 27 26 24 22 22 22 21 21
14 15 15 15 15 15 15 15 16 16 16 17 17 17 17 16 16 16 16 16 16 17 17 16 16 16 16 16 16 17 17 17 17 18 18 18 18 18 18 18 17 17 19 23 27 29 31 32 34 35 33 26 22 19 17 16 17 18 20 21 22 23 23 20 18 18 20 22 23
14 14 14 15 15 15 15 15 15 16 16 16 16 16 16 16 15 15 16 16 16 16 17 16 16 16 16 17 16 16 17 17 17 18 18 18 18 19 19 17 17 17 19 23 27 29 31 33 35 36 34 27 21 17 14 13 13 13 14 14 15 17 18 17 15 15 17 21 25
13 14 14 14 15 15 14 15 15 15 15 15 16 16 16 16 15 15 16 15 16 16 16 15 16 16 16 16 16 16 17 18 18 18 18 18 18 19 19 17 17 18 20 23 27 30 32 33 35 36 34 25 19 14 11 9 8 6 7 8 9 11 12 13 13 13 14 17 21
13 13 14 14 14 14 14 14 14 15 15 15 16 15 15 15 15 16 16 15 16 16 15 13 15 16 17 16 15 15 17 18 18 18 18 18 18 18 17 16 17 18 19 22 26 29 32 34 35 36 34 27 19 12 8 6 4 1 2 5 6 7 8 10 10 10 11 13 14
Wind_Direction
315 315 314 313 312 311 309 308 308 307 307 307 308 309 309 309 307 305 304 304 303 302 303 302 303 304 305 305 304 303 301 299 297 295 293 291 290 289 288 286 283 280 278 277 276 275 274 272 271 269 267 264 263 261 258 255 255 256 256 256 257 259 259 258 256 253 251 249 249
316 315 313 311 311 310 309 308 308 308 309 308 308 309 308 307 304 303 302 301 301 302 302 301 302 302 302 302 301 299 297 296 294 293 291 290 289 287 286 285 283 281 280 279 278 277 275 274 273 272 270 268 267 265 262 257 255 255 255 252 252 253 253 253 252 250 248 248 247
316 315 313 312 311 310 309 308 308 307 307 305 304 303 302 300 299 298 298 298 298 298 298 297 298 298 297 297 296 295 293 292 292 291 290 288 287 285 284 283 283 281 280 278 277 275 274 274 273 271 270 269 267 266 266 264 261 260 258 255 253 251 250 250 248 246 244 243 241
315 314 313 311 309 308 307 306 305 305 304 302 300 298 297 295 294 293 294 295 295 294 293 293 293 293 293 292 291 289 288 287 287 286 286 285 285 284 283 282 281 280 278 276 274 273 271 271 269 268 267 266 265 264 263 263 261 261 260 258 256 254 252 252 250 247 245 243 240
315 313 311 309 308 307 306 305 305 304 303 302 300 298 297 295 294 293 293 294 293 292 292 292 291 290 288 287 286 285 285 284 283 282 282 283 283 283 282 280 279 279 277 275 273 271 270 269 268 266 265 265 263 261 259 260 259 259 258 257 255 252 251 250 249 248 246 246 243
315 313 310 308 308 307 306 305 305 304 303 301 300 298 298 298 297 297 296 295 293 292 291 290 288 286 285 284 284 283 283 282 281 280 280 281 280 280 280 279 278 277 276 274 273 271 270 268 267 266 265 264 262 260 258 257 257 256 256 256 254 253 252 249 246 244 242 242 242
313 312 310 309 308 307 306 305 304 303 303 300 300 299 299 299 298 296 295 293 292 291 289 287 285 284 283 283 282 282 281 281 280 279 278 278 277 276 276 276 276 274 274 273 272 271 269 266 267 266 265 263 262 260 257 254 253 253 253 253 253 254 255 255 252 247 243 241 239
311 310 309 308 307 306 304 304 304 304 304 301 300 299 298 297 295 294 292 291 289 288 286 284 283 282 281 281 280 279 279 278 278 277 276 275 275 274 273 273 272 272 271 270 269 268 267 265 264 264 263 261 261 259 257 253 252 251 251 251 251 251 251 254 256 255 252 248 243
312 311 309 308 307 306 305 305 305 304 303 301 299 297 295 293 293 292 291 289 287 286 284 283 282 281 280 279 278 278 277 277 276 275 274 273 273 272 271 270 269 268 267 266 265 264 263 261 260 260 260 259 259 259 257 253 252 252 251 251 250 249 248 249 251 253 255 256 253
315 313 312 310 309 308 308 308 306 304 302 300 298 295 293 292 291 290 289 288 287 286 285 284 284 283 282 281 280 279 278 277 276 275 274 273 272 270 270 269 268 267 266 264 262 261 260 258 256 255 255 256 256 256 255 253 252 251 251 250 249 248 247 246 246 247 250 253 254
315 314 313 312 312 312 311 310 308 306 303 301 299 297 294 292 290 290 289 290 289 289 288 287 287 286 286 284 283 282 281 279 278 278 277 275 274 272 271 270 269 269 267 265 263 260 258 255 255 254 253 252 252 253 252 250 250 249 249 248 248 248 248 245 243 243 245 246 249
316 315 314 313 313 313 313 311 309 306 304 302 301 299 297 294 294 294 294 294 293 292 292 291 290 290 289 287 286 284 283 281 281 280 279 278 276 275 273 273 272 271 270 268 265 263 259 257 256 255 254 253 252 251 250 249 248 248 248 247 247 247 247 245 243 242 242 242 244
316 316 315 315 315 314 313 311 309 306 305 304 303 302 300 299 299 299 298 296 295 294 294 293 291 290 288 287 285 284 283 282 281 280 278 277 276 275 274 273 272 271 270 269 266 264 261 260 259 258 257 255 253 251 250 248 247 247 246 246 246 246 246 245 243 242 241 241 241
318 317 316 316 316 315 314 312 310 308 307 307 306 305 304 302 302 300 298 296 295 294 292 291 290 288 286 286 285 284 283 282 281 280 278 276 275 274 273 272 271 270 269 268 265 263 262 261 260 259 259 258 256 254 252 250 248 247 246 246 245 245 244 244 243 242 241 241 241
318 318 317 317 317 316 315 314 311 310 309 309 308 307 305 304 302 299 297 295 294 292 291 291 289 287 286 286 285 285 284 282 281 279 278 277 275 274 273 272 270 269 268 267 265 263 261 260 260 259 258 258 257 255 254 252 250 249 248 246 246 245 244 243 242 241 240 240 240
319 318 318 318 318 317 316 315 313 311 311 309 309 308 306 304 302 299 297 295 294 293 291 291 291 290 288 287 286 286 284 282 280 279 278 277 275 274 273 272 270 269 268 266 265 263 261 260 259 259 258 257 257 256 255 253 252 251 250 249 248 246 245 244 242 240 239 239 239
319 318 318 319 318 318 317 316 314 312 311 309 308 307 305 304 302 300 298 296 295 294 293 293 292 291 290 289 287 285 283 281 279 278 277 276 275 274 273 272 270 269 268 266 265 263 262 260 259 258 258 257 256 256 255 254 253 251 250 250 249 248 247 245 243 241 239 238 238
320 319 320 320 319 318 317 316 314 312 310 308 307 305 304 302 301 300 299 297 297 296 296 295 293 291 290 289 287 285 282 280 279 277 276 275 274 273 272 271 270 269 267 266 265 263 262 261 259 258 257 256 256 255 254 253 252 251 250 249 249 248 247 246 245 243 241 239 238
320 320 320 320 320 318 317 315 313 311 309 307 305 304 302 301 302 301 301 300 299 298 297 296 293 291 289 287 286 284 281 280 279 278 276 275 274 273 272 271 270 268 267 265 264 263 262 260 259 258 257 256 254 253 252 252 251 250 249 248 248 247 246 246 245 244 243 242 240
321 321 321 320 319 318 316 314 312 310 308 306 304 303 302 303 303 304 303 302 301 299 297 295 293 291 289 287 285 284 282 280 279 279 278 276 274 273 272 271 270 268 266 265 263 262 261 259 258 257 256 255 253 252 252 251 250 249 248 248 247 246 245 244 243 243 243 242 242
321 320 320 319 317 316 314 312 310 308 307 306 305 304 304 305 305 305 304 303 302 300 297 294 292 291 289 288 286 285 283 281 280 279 278 277 275 274 272 271 269 268 266 264 262 261 259 258 257 256 254 253 252 251 250 250 249 248 247 247 246 244 243 242 241 241 241 240 240
320 319 319 318 316 314 312 310 308 307 306 306 306 306 306 306 306 305 304 303 301 299 297 294 293 291 290 288 287 286 284 282 281 279 278 277 276 274 272 271 269 267 265 263 262 260 259 257 256 254 253 252 251 250 249 248 248 247 246 245 244 243 242 241 240 239 238 238 238
319 318 318 316 314 312 310 307 306 306 307 308 309 309 308 307 305 304 303 302 301 299 297 295 293 291 290 289 288 287 286 284 282 280 278 277 275 274 273 271 269 268 266 264 262 261 260 258 256 254 252 251 250 249 248 247 246 245 245 244 243 242 241 240 239 238 237 236 236
318 318 317 315 313 311 309 307 307 308 309 310 311 310 308 307 306 304 303 303 301 300 298 296 294 292 291 290 288 287 286 285 283 281 279 278 276 275 274 272 270 269 268 266 265 264 263 262 260 257 255 252 250 248 247 245 244 243 243 243 242 241 240 239 238 237 236 235 234
318 317 315 313 312 311 309 309 310 311 312 312 311 310 308 307 307 306 305 304 303 301 299 297 295 293 292 290 289 287 285 284 283 282 281 280 278 277 276 275 273 272 270 268 268 268 267 266 265 263 260 257 253 250 247 244 243 242 241 241 240 240 239 238 237 235 234 234 233
317 315 313 312 311 311 311 312 312 313 313 312 311 310 309 309 308 307 306 305 303 302 300 298 297 295 293 291 289 287 285 283 283 282 282 282 281 280 279 277 275 273 271 271 271 271 271 270 269 268 267 266 264 263 261 258 254 251 248 245 241 239 237 236 235 234 233 232 231
316 313 312 311 312 312 313 314 314 314 313 313 312 312 311 311 310 309 307 305 304 302 301 299 297 296 294 291 289 288 286 285 284 284 284 284 284 283 282 280 278 276 275 276 277 277 277 277 277 277 277 278 279 280 281 281 277 272 267 261 253 246 240 236 234 233 231 231 230
314 313 313 313 314 315 316 316 316 315 314 314 314 313 313 312 311 309 307 306 305 304 303 300 299 297 294 292 290 289 288 288 287 287 286 286 286 286 285 284 282 281 281 283 284 284 284 284 283 283 282 280 279 277 275 274 272 269 267 265 261 256 251 244 238 233 231 229 228
314 314 314 315 316 317 318 318 317 316 316 315 315 315 314 313 312 310 308 307 307 306 304 302 300 298 295 293 292 291 290 290 290 290 290 290 290 289 288 288 287 286 286 288 288 287 287 285 284 282 280 277 274 271 268 266 264 262 259 257 255 254 252 249 245 238 232 229 226
315 314 316 317 318 319 319 319 318 318 318 317 317 316 315 314 313 312 311 310 308 306 305 303 301 299 297 295 294 294 294 295 295 295 295 294 293 292 292 292 291 290 290 290 289 288 287 285 283 281 279 277 274 270 265 261 259 257 255 253 250 249 247 247 246 243 238 232 227
315 316 317 319 319 319 319 319 319 319 319 318 318 317 316 315 314 313 312 311 308 307 305 303 301 299 298 297 298 299 300 301 300 299 298 297 296 295 295 295 294 292 291 291 290 289 287 286 284 282 280 278 274 270 265 261 258 255 253 250 248 246 245 244 243 241 239 236 231
317 318 319 320 320 320 320 320 321 321 320 320 319 318 317 316 315 314 312 311 309 308 307 305 304 302 302 302 303 304 305 305 304 302 301 300 299 299 298 297 295 293 291 291 290 290 288 287 286 284 282 280 276 271 265 261 258 255 252 250 248 246 244 242 240 239 237 236 232
318 320 321 321 321 321 321 322 322 322 321 321 320 319 318 316 315 314 312 311 310 309 308 307 306 305 306 307 308 309 308 307 305 304 303 302 302 301 300 298 295 293 292 293 292 292 291 290 289 287 285 283 278 272 264 259 255 252 250 248 246 244 242 240 239 238 236 234 233
321 322 322 322 322 322 322 323 323 322 322 321 321 320 319 318 316 315 313 312 311 310 308 307 306 306 307 309 310 311 310 309 308 307 306 305 304 302 301 299 295 294 295 295 295 295 295 295 294 292 289 286 280 272 263 256 252 248 246 244 242 240 238 237 237 236 235 233 232
322 323 324 323 323 323 323 323 323 323 323 323 322 321 320 319 317 316 315 314 313 311 309 307 306 307 308 310 311 312 311 311 310 310 309 307 306 304 301 299 296 296 297 298 299 300 300 300 298 296 293 289 281 270 260 254 250 245 242 240 238 236 234 233 232 232 232 231 231
323 324 324 324 324 324 324 324 324 324 324 323 323 321 321 320 318 317 316 315 314 312 311 309 310 311 313 314 315 314 314 313 313 312 311 310 308 306 303 300 298 298 300 302 304 305 305 305 303 300 297 291 281 269 259 252 246 241 237 234 232 230 228 227 226 227 227 227 228
324 324 324 324 324 325 325 325 325 325 325 324 323 322 321 320 319 319 318 318 316 314 313 313 314 316 318 319 318 317 316 315 315 314 313 312 310 308 305 302 300 301 303 306 309 310 310 310 308 305 302 294 284 272 262 252 244 237 232 229 227 224 222 220 220 221 222 223 223
324 324 325 325 325 325 325 326 326 326 325 323 323 322 322 322 321 321 321 321 319 317 316 315 317 319 321 322 320 319 318 317 317 316 315 313 312 309 307 304 304 306 308 312 314 315 315 315 313 312 309 303 293 283 273 260 247 236 228 223 220 217 214 212 212 214 216 218 220
324 325 325 325 325 325 326 326 326 326 325 324 323 323 324 324 323 323 323 322 321 319 317 317 320 322 324 325 323 321 321 320 319 318 316 314 312 311 311 310 310 312 314 317 319 320 321 321 320 321 320 315 306 296 286 276 259 242 227 215 211 208 206 205 205 207 211 215 217
325 325 326 326 326 326 326 326 326 326 325 324 325 325 325 326 325 325 325 324 322 320 319 318 322 324 326 327 325 324 323 321 321 319 317 315 313 314 315 315 315 316 317 320 323 325 327 328 328 331 332 327 318 308 298 293 280 252 219 200 196 196 197 198 199 202 207 211 215
326 326 327 326 326 326 326 327 326 326 326 326 326 326 325 326 326 327 327 325 324 323 321 321 325 327 329 330 328 326 324 323 323 321 319 317 316 317 319 319 319 320 321 323 328 331 333 334 336 339 342 340 331 320 311 313 323 330 158 165 173 178 184 189 194 198 202 206 210